Location: DARK SKY Beskydy - Park tmavé oblohy, www.darkskybeskydy.cz
(49.4926°N, 18.5016°E)
Time: 03:58:03
(UTC+01:00)

Envisat - Pass Details

Date: 03 December 2022
Orbit: 763 x 765 km, 98.2° (Epoch: 05 February)

Event Time Altitude Azimuth Distance (km) Brightness Sun altitude
Rises 05:18:20 0° 6° (N) 3,245 6.2 -19.4°
Reaches altitude 10° 05:20:55 10° 355° (N) 2,314 5.3 -18.9°
Enters shadow 05:23:43 24° 326° (NW) 1,560 4.2 -18.5°
